Regional Weather Roundup
Issued by NWS

Home | Current Version | Previous Version | Text Only | Print | Product List | Glossary On
Versions: 1 2 3 4 5 6 7 8 9 10 11 12 13 14 15 16 17 18 19 20 21 22 23 24 25 26 27 28 29 30 31 32 33 34 35 36 37 38 39 40 41 42 43 44 45 46 47 48 49 50
000
ASUS45 KBOI 261010
RWRID

IDAHO REGIONAL WEATHER ROUNDUP
NATIONAL WEATHER SERVICE BOISE ID
400 AM MDT FRI MAY 26 2017

NOTE: "FAIR" INDICATES FEW OR NO CLOUDS BELOW 12000 FEET
WITH NO SIGNIFICANT WEATHER AND/OR OBSTRUCTIONS TO VISIBILITY

IDZ012-014-261100-
SOUTHWEST IDAHO


CITY           SKY/WX    TMP DP  RH WIND       PRES   REMARKS
BOISE          MOCLDY    49  42  77 SW3       29.82R
CALDWELL       CLOUDY    51  43  74 W12       29.83R
MOUNTAIN HOME  MOCLDY    51  42  72 NW5       29.82R
$$

IDZ016-017-261100-
SOUTHCENTRAL IDAHO


CITY           SKY/WX    TMP DP  RH WIND       PRES   REMARKS
BURLEY         LGT RAIN  45  43  93 W16G24    29.83R
JEROME         LGT RAIN  46  45  96 S6        29.86S
TWIN FALLS     RAIN      44  43  96 SW10      29.87R FOG
$$

IDZ019>023-261100-
SOUTHEAST IDAHO


CITY           SKY/WX    TMP DP  RH WIND       PRES   REMARKS
IDAHO FALLS    CLOUDY    38  33  82 NW5       29.82R WCI  34
POCATELLO      LGT RAIN  50  34  54 S16       29.83R
REXBURG        CLOUDY    39  32  76 E5        29.82R
$$

IDZ006-010-011-018-031-032-261100-
CENTRAL IDAHO MOUNTAINS


CITY           SKY/WX    TMP DP  RH WIND       PRES   REMARKS
MCCALL         CLOUDY    42  37  82 N7        29.83S
HAILEY         LGT RAIN  41  37  87 E5        29.88S
STANLEY          N/A     37  35  92 SE6       29.88R WCI  32
SALMON         CLOUDY    45  39  81 NW3       29.88S
CHALLIS        LGT RAIN  44  38  79 NW8       29.85R
$$

IDZ002-004-006-007-026-261100-
NORTHERN IDAHO


CITY           SKY/WX    TMP DP  RH WIND       PRES   REMARKS
LEWISTON       PTCLDY    50  43  77 CALM      29.87R
LOWELL           N/A     46  43  89 N3        29.91R
COEUR D`ALENE  CLEAR     47  41  80 E6        29.89S
MULLAN PASS    CLEAR     38  32  79 CALM      29.93R
$$



USA.gov is the U.S. government's official web portal to all federal, state and local government web resources and services.